Flag for Germany Weather past 2 weeks in Garbsen, Lower Saxony, Germany

Now
55 °F

Sunny.


Feels Like: 54 °F
Forecast: 49 / 61 °F
Wind: 6 mph from South

Location: Hannover

Current Time: Apr 25, 2015 at 10:13:54 PM

Latest Report: Apr 25, 2015 at 9:20 PM


Visibility: 10 mi

Pressure: 29.74 "Hg

Humidity: 82%

Dew point: 50 °F

Location of GarbsenLocation

Historic Weather in Garbsen — Graph

°F

Garbsen temperature yesterday

Maximum temperature yesterday: 66 °F (at 3:20 PM)
Minimum temperature yesterday: 36 °F (at 7:20 AM)
Average temperature yesterday: 53 °F

Past Weeks' High & Low Weather Summary

 TemperatureHumidityPressure
High72 °F (Apr 15, 3:20 PM)100% (Apr 17, 6:50 AM)30.42 "Hg (Apr 17, 6:50 AM)
Low34 °F (Apr 14, 6:20 AM)32% (Apr 20, 4:20 PM)29.71 "Hg (Apr 25, 6:50 PM)
Average50 °F68%30.15 "Hg
* Reported Apr 10 8:20 PM — Apr 25 8:50 PM, Garbsen, Weather by CustomWeather, © 2015

Note: Actual official high and low records may vary slightly from our data, if they occured in-between our weather recording intervals... More about our weather records

Advertising

Garbsen weather history for previous 24 hours

 ConditionsComfort  
Time TempWeatherWind HumidityBarometerVisibility
8:50 PM
Sat, Apr 25
55 °FSunny.6 mph82%29.74 "Hg10 mi
8:20 PM55 °FSunny.5 mph82%29.74 "Hg10 mi
7:50 PM55 °FSunny.5 mph82%29.71 "Hg10 mi
7:20 PM57 °FBroken clouds.3 mph82%29.71 "HgN/A
6:50 PM57 °FLight rain. Broken clouds.2 mph82%29.71 "HgN/A
6:20 PM57 °FLight rain. Broken clouds.6 mph77%29.74 "HgN/A
5:50 PM57 °FBroken clouds.8 mph77%29.74 "HgN/A
5:20 PM57 °FLight rain. Broken clouds.8 mph82%29.74 "HgN/A
4:50 PM57 °FLight rain. Partly sunny.9 mph82%29.74 "Hg6 mi
4:20 PM55 °FLight rain. Broken clouds.7 mph88%29.74 "Hg4 mi
3:50 PM55 °FLight rain. Broken clouds.6 mph88%29.74 "Hg4 mi
3:20 PM55 °FLight rain. Broken clouds.10 mph88%29.74 "Hg3 mi
2:50 PM57 °FLight rain. Broken clouds.6 mph88%29.74 "Hg4 mi
2:20 PM57 °FLight rain. Partly sunny.5 mph82%29.74 "Hg5 mi
1:50 PM59 °FLight rain. Partly sunny.3 mph72%29.74 "Hg6 mi
1:20 PM59 °FLight rain. Partly sunny.5 mph72%29.74 "HgN/A
12:50 PM59 °FPartly sunny.2 mph72%29.74 "HgN/A
12:20 PM57 °FPartly sunny.6 mph77%29.74 "HgN/A
11:50 AM57 °FLight rain. Partly sunny.2 mph77%29.77 "HgN/A
11:20 AM57 °FLight rain. Broken clouds.9 mph72%29.77 "HgN/A
10:50 AM59 °FLight rain. Partly sunny.5 mph72%29.74 "HgN/A
10:20 AM59 °FBroken clouds.2 mph72%29.74 "HgN/A
9:50 AM59 °FBroken clouds.5 mph63%29.74 "HgN/A
9:20 AM57 °FPartly sunny.3 mph72%29.74 "HgN/A
8:50 AM55 °FPartly sunny.3 mph82%29.74 "HgN/A
8:20 AM55 °FBroken clouds.2 mph82%29.74 "HgN/A
7:50 AM52 °FPartly sunny.3 mph94%29.74 "HgN/A
7:20 AM54 °FLight rain. Partly sunny.3 mph82%29.74 "HgN/A
6:50 AM54 °FLight rain. Partly cloudy.6 mph77%29.74 "HgN/A
6:20 AM54 °FLight rain. Partly cloudy.5 mph67%29.74 "HgN/A
5:20 AM54 °FCool.7 mph63%29.74 "HgN/A
4:50 AM54 °FClear.8 mph63%29.74 "Hg10 mi
4:20 AM54 °FClear.8 mph63%29.74 "Hg10 mi
3:50 AM54 °FClear.3 mph63%29.74 "Hg10 mi
3:20 AM52 °FPassing clouds.3 mph67%29.77 "HgN/A
2:50 AM52 °FClear.5 mph67%29.77 "Hg10 mi
2:20 AM52 °FClear.3 mph62%29.77 "Hg10 mi
1:50 AM52 °FClear.5 mph67%29.77 "Hg10 mi
1:20 AM54 °FClear.6 mph63%29.80 "Hg5 mi
12:50 AM54 °FClear.6 mph63%29.80 "Hg5 mi
12:20 AM54 °FClear.6 mph63%29.80 "Hg5 mi
11:20 PM
Fri, Apr 24
54 °FClear.6 mph63%29.80 "Hg5 mi
10:50 PM52 °FClear.2 mph67%29.80 "Hg5 mi
10:20 PM54 °FPassing clouds.3 mph63%29.80 "HgN/A
Weather by CustomWeather, © 2015

See weather overviewHow to use our weather pages